Shawnee Mission, KS (66206)

4:51 AM CST on February 08, 2016 (GMT -0600)
Round Hill - Fay Ironman | | Change Station
CLOSE
Current Station
Personal Weather Station
Location: Overland Park, KS
Elevation: 1063 ft
Nearby Weather Stations
Active Advisory: Wind Advisory

Elev 1063 ft 38.97 °N, 94.65 °W | Updated 59 seconds ago

Overcast
Overcast
34.4 °F
Feels Like 27 °F
N
10.0
Wind Variable Wind from NNE
Gusts 15.0 mph

Today
High -- | Low -- °F
--% Chance of Precip.
Yesterday
High -- | Low -- °F
Precip. -- in
Pressure 30.01 in
Visibility 9.0 miles
Clouds Scattered Clouds 4000 ft
Mostly Cloudy 4900 ft
Overcast 6000 ft
Windchill 27 °F
Dew Point 23 °F
Humidity 63%
Rainfall 0.00 in
Snow Depth Not available.
7:18 AM 5:47 PM
Waning Crescent, 0% visible
METAR KOJC 080953Z AUTO 34017G25KT 9SM SCT040 BKN049 OVC060 01/M07 A2999 RMK AO2 PK WND 32033/0938 SNB40E50 SLP160 P0000 T00111067
Pressure 30.01 in
Visibility 9.0 miles
Clouds Scattered Clouds 4000 ft
Mostly Cloudy 4900 ft
Overcast 6000 ft
Windchill 27 °F
Dew Point 23 °F
Humidity 63%
Rainfall 0.00 in
Snow Depth Not available.
7:18 AM 5:47 PM
Waning Crescent, 0% visible
METAR KOJC 080953Z AUTO 34017G25KT 9SM SCT040 BKN049 OVC060 01/M07 A2999 RMK AO2 PK WND 32033/0938 SNB40E50 SLP160 P0000 T00111067

10-Day Weather Forecast

Almanac

Astronomy

Feb. 08, 2016 Rise Set
Actual Time
Civil Twilight
Nautical Twilight
Astronomical Twilight
Moon
Length of Visible Light
Length of Day
Tomorrow will be .
, % of the Moon is Illuminated

Today's Extremes

State Highs State Lows

Community

WunderPhotos

Upload Photos

1,891,420 photos uploaded!

WunderBlog® & News

Nearby

Air Quality

  Air Quality AQ Index Pollutant
Not available.

Snow Depth

Station Depth Elevation

Earthquake Activity

City Distance Mag. Time & Date
Minimum magnitude displayed is 2.5.

Coastal Water Temperatures

Place Temperature

Stations

Nearby Weather Stations

Station Location Temp. Windchill Dew Point Humidity Wind Precip. Elev Updated Type
                   

Watches & Warnings

Wind Advisory
Issued: 4:50 AM CST Feb. 8, 2016 – National Weather Service

... Wind Advisory remains in effect from 8 am this morning to 6 PM
CST this evening...

* timing... through this evening.

* Winds... sustained winds around 30 to 35 mph with gusts in excess
of 45 mph are expected.

* Impacts... strong Crosswinds on highways could make travel
difficult... particularly for high profile vehicles. In
addition... light snow this morning combined with strong winds may
periodically reduce visibilities.

Precautionary/preparedness actions...

A Wind Advisory means that winds of 35 mph are expected. Winds
this strong can make driving difficult... especially for high
profile vehicles. Use extra caution.